Вернуться в каталог

STARLINK-31373

АктивенСвязьVLEO
NORAD 58965·PAYLOAD·🇺🇸 United States

Запущен Feb 15, 2024 с Vandenberg Space Force Base

Loading…

Ближайшие Пролёты (ближайшие 24 часа)

TLE

СвежийSource: CelesTrak SupGP

Эпоха: Sep 15, 2026, 03:01 UTC

1 58965C 24031A   26258.12618056  .00045353  00000+0  13400-2 0  2582
2 58965  53.1561 134.5609 0001286  90.4822  71.1436 15.34367604    18

Отслеживайте STARLINK-31373 в реальном времени с AllMySat

Download on the App Store